Location: La Silve
(44.2414°N, 5.8889°E)
Time: 05:26:28
(UTC+00:00)

Cosmos 1869 Rocket - Pass Details

Date: 01 December 2020
Orbit: 604 x 634 km, 82.5° (Epoch: 24 January)

Event Time Altitude Azimuth Distance (km) Brightness Sun altitude
Rises 18:11:48 0° 351° (N) 2,942 7.0 -23.2°
Reaches altitude 10° 18:14:03 10° 352° (N) 2,028 6.2 -23.6°
Enters shadow 18:18:01 69° 358° (N) 682 3.6 -24.3°
Exits shadow 18:22:42 12° 172° (S) 1,871 6.0 -25.1°
Drops below altitude 10° 18:23:01 10° 172° (S) 2,001 6.1 -25.2°
Sets 18:25:14 0° 173° (S) 2,899 7.0 -25.6°
